Time,TemperatureF,DewpointF,PressureIn,WindDirection,WindDirectionDegrees,WindSpeedMPH,WindSpeedGustMPH,Humidity,HourlyPrecipIn,Conditions,Clouds,dailyrainin,SoftwareType,DateUTC
2013-04-08 00:00:00,37.3,30.4,29.85,SE,135,9.4,9.4,76,0.00,,,0.00,WUHU216HW,2013-04-08 05:00:00,
2013-04-08 00:05:00,37.4,30.6,29.85,SE,135,9.6,9.6,76,0.00,,,0.00,WUHU216HW,2013-04-08 05:05:00,
2013-04-08 00:30:00,36.9,30.7,29.83,ESE,113,3.6,3.6,78,0.00,,,0.00,WUHU216HW,2013-04-08 05:30:00,
2013-04-08 00:35:00,36.9,30.3,29.83,ESE,113,3.6,3.6,77,0.00,,,0.00,WUHU216HW,2013-04-08 05:35:00,
2013-04-08 00:40:00,36.9,30.3,29.83,ESE,113,3.6,3.6,77,0.00,,,0.00,WUHU216HW,2013-04-08 05:40:00,
2013-04-08 01:00:00,36.7,30.5,29.82,SSE,158,4.0,4.0,78,0.00,,,0.00,WUHU216HW,2013-04-08 06:00:00,
2013-04-08 01:05:00,36.7,30.5,29.82,SSE,158,4.7,4.7,78,0.00,,,0.00,WUHU216HW,2013-04-08 06:05:00,
2013-04-08 01:10:00,36.7,30.5,29.82,SSE,158,4.7,4.7,78,0.00,,,0.00,WUHU216HW,2013-04-08 06:10:00,
2013-04-08 01:30:00,36.9,30.7,29.81,SSE,158,4.7,4.7,78,0.00,,,0.00,WUHU216HW,2013-04-08 06:30:00,
2013-04-08 01:35:00,36.9,30.7,29.81,SSE,158,7.8,7.8,78,0.00,,,0.00,WUHU216HW,2013-04-08 06:35:00,
2013-04-08 01:40:00,36.9,30.7,29.81,SSE,158,7.8,7.8,78,0.00,,,0.00,WUHU216HW,2013-04-08 06:40:00,
2013-04-08 02:00:00,37.3,30.7,29.81,SE,135,8.7,8.7,77,0.00,,,0.00,WUHU216HW,2013-04-08 07:00:00,
2013-04-08 02:05:00,37.3,30.7,29.81,SSE,158,5.4,8.7,77,0.00,,,0.00,WUHU216HW,2013-04-08 07:05:00,
2013-04-08 02:10:00,37.3,30.7,29.81,SSE,158,5.4,8.7,77,0.00,,,0.00,WUHU216HW,2013-04-08 07:10:00,
2013-04-08 02:30:00,37.3,30.4,29.79,SSW,203,5.8,5.8,76,0.00,,,0.00,WUHU216HW,2013-04-08 07:30:00,
2013-04-08 02:35:00,37.3,30.4,29.79,SSE,158,5.1,5.8,76,0.00,,,0.00,WUHU216HW,2013-04-08 07:35:00,
2013-04-08 03:00:00,37.3,30.7,29.77,SSE,158,6.3,6.3,77,0.00,,,0.00,WUHU216HW,2013-04-08 08:00:00,
2013-04-08 03:05:00,37.3,30.7,29.77,SSE,158,6.3,6.3,77,0.00,,,0.00,WUHU216HW,2013-04-08 08:05:00,
2013-04-08 03:10:00,37.3,30.7,29.77,SSE,158,6.3,6.3,77,0.00,,,0.00,WUHU216HW,2013-04-08 08:10:00,
2013-04-08 03:30:00,37.4,30.6,29.76,South,180,2.9,2.9,76,0.00,,,0.00,WUHU216HW,2013-04-08 08:30:00,
2013-04-08 03:35:00,37.4,30.6,29.75,South,180,2.9,2.9,76,0.00,,,0.00,WUHU216HW,2013-04-08 08:35:00,
2013-04-08 03:40:00,37.4,30.6,29.75,South,180,2.9,2.9,76,0.00,,,0.00,WUHU216HW,2013-04-08 08:40:00,
2013-04-08 04:00:00,37.8,31.2,29.74,SE,135,5.4,5.4,77,0.00,,,0.00,WUHU216HW,2013-04-08 09:00:00,
2013-04-08 04:05:00,37.8,31.2,29.74,SSE,158,9.8,9.8,77,0.00,,,0.00,WUHU216HW,2013-04-08 09:05:00,
2013-04-08 04:10:00,37.8,31.2,29.74,SSE,158,9.8,9.8,77,0.00,,,0.00,WUHU216HW,2013-04-08 09:10:00,
2013-04-08 04:30:00,38.0,31.4,29.72,SE,135,4.0,4.0,77,0.00,,,0.00,WUHU216HW,2013-04-08 09:30:00,
2013-04-08 04:35:00,38.0,31.4,29.72,SE,135,4.0,4.0,77,0.00,,,0.00,WUHU216HW,2013-04-08 09:35:00,
2013-04-08 04:40:00,38.0,31.4,29.72,SE,135,4.0,4.0,77,0.00,,,0.00,WUHU216HW,2013-04-08 09:40:00,
2013-04-08 05:00:00,38.3,31.4,29.72,SE,135,4.3,4.3,76,0.00,,,0.00,WUHU216HW,2013-04-08 10:00:00,
2013-04-08 05:05:00,38.3,31.4,29.72,SSE,158,4.0,4.3,76,0.00,,,0.00,WUHU216HW,2013-04-08 10:05:00,
2013-04-08 05:10:00,38.3,31.4,29.72,SSE,158,4.0,4.3,76,0.00,,,0.00,WUHU216HW,2013-04-08 10:10:00,
2013-04-08 05:30:00,38.9,32.3,29.69,SE,135,2.5,2.5,77,0.00,,,0.00,WUHU216HW,2013-04-08 10:30:00,
2013-04-08 05:35:00,38.9,32.3,29.69,ESE,113,1.8,2.5,77,0.00,,,0.00,WUHU216HW,2013-04-08 10:35:00,
2013-04-08 05:40:00,38.9,32.3,29.69,ESE,113,1.8,2.5,77,0.00,,,0.00,WUHU216HW,2013-04-08 10:40:00,
2013-04-08 06:00:00,40.0,33.3,29.68,East,90,2.0,2.0,77,0.00,,,0.00,WUHU216HW,2013-04-08 11:00:00,
2013-04-08 06:05:00,40.0,33.3,29.68,East,90,0.9,2.0,77,0.00,,,0.00,WUHU216HW,2013-04-08 11:05:00,
2013-04-08 06:10:00,40.0,33.3,29.68,East,90,0.9,2.0,77,0.00,,,0.00,WUHU216HW,2013-04-08 11:10:00,
2013-04-08 06:30:00,41.2,34.2,29.67,SE,135,5.6,5.6,76,0.00,,,0.00,WUHU216HW,2013-04-08 11:30:00,
2013-04-08 06:35:00,41.2,34.2,29.67,SE,135,5.6,5.6,76,0.00,,,0.00,WUHU216HW,2013-04-08 11:35:00,
2013-04-08 06:40:00,41.2,34.2,29.67,SE,135,5.6,5.6,76,0.00,,,0.00,WUHU216HW,2013-04-08 11:40:00,
2013-04-08 07:00:00,41.8,34.8,29.67,SSE,158,3.8,3.8,76,0.00,,,0.00,WUHU216HW,2013-04-08 12:00:00,
2013-04-08 07:05:00,41.8,34.4,29.67,SE,135,1.8,3.8,75,0.00,,,0.00,WUHU216HW,2013-04-08 12:05:00,
2013-04-08 07:10:00,41.8,34.4,29.67,SE,135,1.8,1.8,75,0.00,,,0.00,WUHU216HW,2013-04-08 12:10:00,
2013-04-08 07:30:00,41.6,36.1,29.67,NE,45,4.0,4.0,81,0.00,,,0.00,WUHU216HW,2013-04-08 12:30:00,
2013-04-08 07:35:00,41.6,36.1,29.67,NE,45,6.9,6.9,81,0.00,,,0.00,WUHU216HW,2013-04-08 12:35:00,
2013-04-08 07:40:00,41.6,36.1,29.67,NE,45,6.9,6.9,81,0.00,,,0.00,WUHU216HW,2013-04-08 12:40:00,
2013-04-08 08:00:00,41.2,35.7,29.69,North,0,0.0,0.0,81,0.01,,,0.00,WUHU216HW,2013-04-08 13:00:00,
2013-04-08 08:05:00,41.2,35.7,29.69,North,0,0.0,0.0,81,0.01,,,0.01,WUHU216HW,2013-04-08 13:05:00,
2013-04-08 08:10:00,41.2,35.7,29.69,North,0,0.0,0.0,81,0.01,,,0.01,WUHU216HW,2013-04-08 13:10:00,
2013-04-08 08:30:00,40.5,36.3,29.69,NNW,338,0.7,0.7,85,0.12,,,0.01,WUHU216HW,2013-04-08 13:30:00,
2013-04-08 08:35:00,40.5,36.3,29.68,NNW,338,0.4,0.7,85,0.12,,,0.12,WUHU216HW,2013-04-08 13:35:00,
2013-04-08 08:40:00,40.5,36.3,29.68,NNW,338,0.4,0.7,85,0.12,,,0.12,WUHU216HW,2013-04-08 13:40:00,
2013-04-08 09:00:00,39.4,36.5,29.67,North,0,1.6,1.6,89,0.28,,,0.12,WUHU216HW,2013-04-08 14:00:00,
2013-04-08 09:05:00,39.4,36.5,29.67,North,0,1.6,1.6,89,0.28,,,0.30,WUHU216HW,2013-04-08 14:05:00,
2013-04-08 09:10:00,39.4,36.5,29.67,North,0,1.6,1.6,89,0.28,,,0.30,WUHU216HW,2013-04-08 14:10:00,
2013-04-08 09:30:00,39.4,37.0,29.66,NNW,338,3.8,3.8,91,0.33,,,0.30,WUHU216HW,2013-04-08 14:30:00,
2013-04-08 09:35:00,39.4,37.0,29.66,North,0,2.5,3.8,91,0.33,,,0.46,WUHU216HW,2013-04-08 14:35:00,
2013-04-08 09:40:00,39.4,37.0,29.66,North,0,2.5,2.5,91,0.33,,,0.46,WUHU216HW,2013-04-08 14:40:00,
2013-04-08 10:00:00,39.4,37.3,29.64,NE,45,3.4,3.4,92,0.22,,,0.46,WUHU216HW,2013-04-08 15:00:00,
2013-04-08 10:05:00,39.4,37.3,29.64,NW,315,3.4,3.4,92,0.19,,,0.52,WUHU216HW,2013-04-08 15:05:00,
2013-04-08 10:10:00,39.4,37.3,29.64,NW,315,3.4,3.4,92,0.19,,,0.52,WUHU216HW,2013-04-08 15:10:00,
2013-04-08 10:30:00,40.3,38.2,29.62,North,0,8.5,8.5,92,0.08,,,0.52,WUHU216HW,2013-04-08 15:30:00,
2013-04-08 10:35:00,40.3,38.2,29.61,NNW,338,6.3,8.5,92,0.08,,,0.54,WUHU216HW,2013-04-08 15:35:00,
2013-04-08 10:40:00,40.3,38.2,29.61,NNW,338,6.3,8.3,92,0.08,,,0.54,WUHU216HW,2013-04-08 15:40:00,
2013-04-08 11:00:00,42.3,39.9,29.65,NW,315,5.8,5.8,91,0.02,,,0.54,WUHU216HW,2013-04-08 16:00:00,
2013-04-08 11:05:00,42.3,39.9,29.65,WNW,293,3.4,5.8,91,0.02,,,0.54,WUHU216HW,2013-04-08 16:05:00,
2013-04-08 11:10:00,42.3,39.9,29.65,WNW,293,3.4,5.8,91,0.02,,,0.54,WUHU216HW,2013-04-08 16:10:00,
2013-04-08 11:30:00,42.1,39.4,29.68,NNW,338,2.7,2.7,90,0.00,,,0.54,WUHU216HW,2013-04-08 16:30:00,
2013-04-08 11:35:00,42.1,39.4,29.68,NNE,23,1.6,2.7,90,0.00,,,0.54,WUHU216HW,2013-04-08 16:35:00,
2013-04-08 11:40:00,42.1,39.4,29.68,NNE,23,1.6,2.7,90,0.00,,,0.54,WUHU216HW,2013-04-08 16:40:00,
2013-04-08 12:00:00,42.8,40.1,29.69,NE,45,2.5,2.5,90,0.00,,,0.54,WUHU216HW,2013-04-08 17:00:00,
2013-04-08 12:05:00,42.8,40.1,29.69,North,0,3.1,3.1,90,0.00,,,0.54,WUHU216HW,2013-04-08 17:05:00,
2013-04-08 12:10:00,42.8,40.1,29.69,North,0,3.1,3.1,90,0.00,,,0.54,WUHU216HW,2013-04-08 17:10:00,
2013-04-08 12:30:00,43.6,40.6,29.71,North,0,1.8,1.8,89,0.00,,,0.54,WUHU216HW,2013-04-08 17:30:00,
2013-04-08 12:35:00,43.6,40.6,29.71,NNW,338,1.6,1.8,89,0.00,,,0.54,WUHU216HW,2013-04-08 17:35:00,
2013-04-08 12:40:00,43.6,40.6,29.71,NNW,338,1.6,1.8,89,0.00,,,0.54,WUHU216HW,2013-04-08 17:40:00,
2013-04-08 12:59:00,45.0,41.7,29.72,NNW,338,4.0,4.0,88,0.00,,,0.54,WUHU216HW,2013-04-08 17:59:00,
2013-04-08 13:04:00,45.0,41.7,29.72,NNW,338,2.5,4.5,88,0.00,,,0.54,WUHU216HW,2013-04-08 18:04:00,
2013-04-08 13:09:00,45.0,41.7,29.72,NNW,338,2.5,4.5,88,0.00,,,0.54,WUHU216HW,2013-04-08 18:09:00,
2013-04-08 13:30:00,46.4,42.9,29.72,NNE,23,5.4,5.4,87,0.00,,,0.54,WUHU216HW,2013-04-08 18:30:00,
2013-04-08 13:35:00,46.4,42.9,29.72,NNE,23,5.4,5.4,87,0.00,,,0.54,WUHU216HW,2013-04-08 18:35:00,
2013-04-08 13:40:00,46.4,42.9,29.72,NNE,23,5.4,5.4,87,0.00,,,0.54,WUHU216HW,2013-04-08 18:40:00,
2013-04-08 14:00:00,48.2,43.3,29.74,WNW,293,2.9,2.9,83,0.00,,,0.54,WUHU216HW,2013-04-08 19:00:00,
2013-04-08 14:05:00,48.2,43.3,29.74,NW,315,2.9,2.9,83,0.00,,,0.54,WUHU216HW,2013-04-08 19:05:00,
2013-04-08 14:10:00,48.2,43.3,29.74,NW,315,2.9,2.9,83,0.00,,,0.54,WUHU216HW,2013-04-08 19:10:00,
2013-04-08 14:30:00,49.5,44.2,29.74,North,0,4.0,4.0,82,0.00,,,0.54,WUHU216HW,2013-04-08 19:30:00,
2013-04-08 14:35:00,49.5,44.2,29.74,North,0,4.0,4.0,82,0.00,,,0.54,WUHU216HW,2013-04-08 19:35:00,
2013-04-08 14:40:00,49.5,44.2,29.74,North,0,4.0,4.0,82,0.00,,,0.54,WUHU216HW,2013-04-08 19:40:00,
2013-04-08 14:59:00,50.2,44.6,29.75,NE,45,2.9,2.9,81,0.00,,,0.54,WUHU216HW,2013-04-08 19:59:00,
2013-04-08 15:05:00,50.4,44.7,29.75,NNE,23,2.2,2.9,81,0.00,,,0.54,WUHU216HW,2013-04-08 20:05:00,
2013-04-08 15:10:00,50.4,44.7,29.75,NNE,23,2.2,2.2,81,0.00,,,0.54,WUHU216HW,2013-04-08 20:10:00,
2013-04-08 15:30:00,52.2,44.9,29.75,ENE,68,2.9,2.9,76,0.00,,,0.54,WUHU216HW,2013-04-08 20:30:00,
2013-04-08 15:35:00,52.2,44.9,29.75,ESE,113,2.2,3.4,76,0.00,,,0.54,WUHU216HW,2013-04-08 20:35:00,
2013-04-08 15:40:00,52.2,44.9,29.75,ESE,113,2.2,3.4,76,0.00,,,0.54,WUHU216HW,2013-04-08 20:40:00,
2013-04-08 15:59:00,53.8,45.4,29.76,NE,45,4.0,4.0,73,0.00,,,0.54,WUHU216HW,2013-04-08 20:59:00,
2013-04-08 16:04:00,53.8,45.4,29.76,North,0,2.5,4.0,73,0.00,,,0.54,WUHU216HW,2013-04-08 21:04:00,
2013-04-08 16:09:00,53.8,45.4,29.76,North,0,2.5,3.8,73,0.00,,,0.54,WUHU216HW,2013-04-08 21:09:00,
2013-04-08 16:30:00,54.0,45.6,29.77,ENE,68,2.2,2.2,73,0.00,,,0.54,WUHU216HW,2013-04-08 21:30:00,
2013-04-08 16:35:00,54.0,45.6,29.77,ESE,113,1.3,2.2,73,0.00,,,0.54,WUHU216HW,2013-04-08 21:35:00,
2013-04-08 16:40:00,54.0,45.6,29.77,ESE,113,1.3,2.2,73,0.00,,,0.54,WUHU216HW,2013-04-08 21:40:00,
2013-04-08 17:00:00,54.4,45.6,29.78,NE,45,5.6,5.6,72,0.00,,,0.54,WUHU216HW,2013-04-08 22:00:00,
2013-04-08 17:05:00,54.4,45.6,29.78,NE,45,5.6,5.6,72,0.00,,,0.54,WUHU216HW,2013-04-08 22:05:00,
2013-04-08 17:30:00,53.8,45.7,29.80,North,0,4.7,4.7,74,0.00,,,0.54,WUHU216HW,2013-04-08 22:30:00,
2013-04-08 17:35:00,53.8,45.4,29.80,North,0,4.5,4.7,73,0.00,,,0.54,WUHU216HW,2013-04-08 22:35:00,
2013-04-08 17:40:00,53.8,45.4,29.80,North,0,4.5,4.7,73,0.00,,,0.54,WUHU216HW,2013-04-08 22:40:00,
2013-04-08 18:00:00,51.8,44.2,29.81,NE,45,4.3,4.3,75,0.00,,,0.54,WUHU216HW,2013-04-08 23:00:00,
2013-04-08 18:05:00,52.0,44.4,29.81,ENE,68,3.6,4.3,75,0.00,,,0.54,WUHU216HW,2013-04-08 23:05:00,
2013-04-08 18:10:00,52.0,44.4,29.81,ENE,68,3.6,3.6,75,0.00,,,0.54,WUHU216HW,2013-04-08 23:10:00,
2013-04-08 18:30:00,50.6,43.9,29.82,NE,45,4.7,4.7,78,0.00,,,0.54,WUHU216HW,2013-04-08 23:30:00,
2013-04-08 18:35:00,50.6,43.9,29.82,ENE,68,4.7,4.7,78,0.00,,,0.54,WUHU216HW,2013-04-08 23:35:00,
2013-04-08 18:40:00,50.6,43.9,29.82,ENE,68,4.7,4.7,78,0.00,,,0.54,WUHU216HW,2013-04-08 23:40:00,
2013-04-08 18:59:00,48.6,42.7,29.84,ENE,68,5.8,5.8,80,0.00,,,0.54,WUHU216HW,2013-04-08 23:59:00,
2013-04-08 19:05:00,48.4,42.5,29.84,NE,45,4.5,5.8,80,0.00,,,0.54,WUHU216HW,2013-04-09 00:05:00,
2013-04-08 19:10:00,48.4,42.5,29.84,NE,45,4.5,5.8,80,0.00,,,0.54,WUHU216HW,2013-04-09 00:10:00,
2013-04-08 19:30:00,46.3,41.1,29.86,NNE,23,5.1,5.1,82,0.00,,,0.54,WUHU216HW,2013-04-09 00:30:00,
2013-04-08 19:35:00,46.3,41.1,29.86,NNE,23,5.1,5.1,82,0.00,,,0.54,WUHU216HW,2013-04-09 00:35:00,
2013-04-08 19:40:00,46.3,41.1,29.86,NNE,23,5.1,5.1,82,0.00,,,0.54,WUHU216HW,2013-04-09 00:40:00,
2013-04-08 20:00:00,45.2,40.7,29.87,ENE,68,3.4,3.4,84,0.00,,,0.54,WUHU216HW,2013-04-09 01:00:00,
2013-04-08 20:04:00,45.0,40.5,29.87,ENE,68,3.4,3.4,84,0.00,,,0.54,WUHU216HW,2013-04-09 01:04:00,
2013-04-08 20:10:00,45.0,40.5,29.87,ENE,68,3.4,3.4,84,0.00,,,0.54,WUHU216HW,2013-04-09 01:10:00,
2013-04-08 20:30:00,44.6,40.4,29.89,ENE,68,3.4,3.4,85,0.00,,,0.54,WUHU216HW,2013-04-09 01:30:00,
2013-04-08 20:35:00,44.6,40.4,29.90,NE,45,2.0,3.4,85,0.00,,,0.54,WUHU216HW,2013-04-09 01:35:00,
2013-04-08 20:40:00,44.6,40.4,29.90,NE,45,2.0,2.0,85,0.00,,,0.54,WUHU216HW,2013-04-09 01:40:00,
2013-04-08 21:00:00,44.3,40.3,29.92,NE,45,2.7,2.7,86,0.00,,,0.54,WUHU216HW,2013-04-09 02:00:00,
2013-04-08 21:05:00,44.3,40.3,29.92,NE,45,1.8,2.7,86,0.00,,,0.54,WUHU216HW,2013-04-09 02:05:00,
2013-04-08 21:10:00,44.3,40.3,29.92,NE,45,1.8,2.7,86,0.00,,,0.54,WUHU216HW,2013-04-09 02:10:00,
2013-04-08 21:30:00,43.6,40.2,29.92,NE,45,4.0,4.0,88,0.00,,,0.54,WUHU216HW,2013-04-09 02:30:00,
2013-04-08 21:35:00,43.4,40.1,29.92,NNE,23,5.4,5.4,88,0.00,,,0.54,WUHU216HW,2013-04-09 02:35:00,
2013-04-08 21:40:00,43.4,40.1,29.92,NNE,23,5.4,5.4,88,0.00,,,0.54,WUHU216HW,2013-04-09 02:40:00,
2013-04-08 22:00:00,42.7,39.3,29.94,NE,45,4.0,4.0,88,0.00,,,0.54,WUHU216HW,2013-04-09 03:00:00,
2013-04-08 22:05:00,42.7,39.3,29.94,ENE,68,3.4,4.0,88,0.00,,,0.54,WUHU216HW,2013-04-09 03:05:00,
2013-04-08 22:10:00,42.7,39.3,29.94,ENE,68,3.4,4.0,88,0.00,,,0.54,WUHU216HW,2013-04-09 03:10:00,
2013-04-08 22:30:00,41.8,38.8,29.95,NNE,23,3.4,3.4,89,0.00,,,0.54,WUHU216HW,2013-04-09 03:30:00,
2013-04-08 22:35:00,41.8,38.8,29.95,NNE,23,3.4,3.4,89,0.00,,,0.54,WUHU216HW,2013-04-09 03:35:00,
2013-04-08 22:40:00,41.8,38.8,29.95,NNE,23,3.4,3.4,89,0.00,,,0.54,WUHU216HW,2013-04-09 03:40:00,
2013-04-08 23:00:00,41.2,38.5,29.96,NE,45,3.4,3.4,90,0.00,,,0.54,WUHU216HW,2013-04-09 04:00:00,
2013-04-08 23:05:00,41.2,38.5,29.96,NE,45,3.4,3.4,90,0.00,,,0.54,WUHU216HW,2013-04-09 04:05:00,
2013-04-08 23:30:00,40.5,37.8,29.95,NE,45,4.7,4.7,90,0.00,,,0.54,WUHU216HW,2013-04-09 04:30:00,
2013-04-08 23:35:00,40.5,37.8,29.95,NE,45,7.6,7.6,90,0.00,,,0.54,WUHU216HW,2013-04-09 04:35:00,
2013-04-08 23:40:00,40.5,37.8,29.95,NE,45,7.6,7.6,90,0.00,,,0.54,WUHU216HW,2013-04-09 04:40:00,
2013-04-08 23:59:00,39.6,36.9,29.95,NE,45,7.6,7.6,90,0.00,,,0.00,WUHU216HW,2013-04-09 04:59:00,